Troy Jacob — WDI3658 — position and weather

sailwx.info

Track history (hours):
 
Tides and Currents Weather Stations Pressure Air Temp Water Temp Dewpoint Dewpoint Depression Visibility Wind Speed Wind Dir Waves Ship Positions

Troy Jacob

Owner: ABC Marine Towing, Harvey, LA. More information available from US FCC via Universal Licensing System and Coast Guard Vessel Documentation Center.

Last reported at 2017-Sep-20 19:19 UTC. Time now 2017-Nov-25 02:03 UTC.
Position N 29°33' W 090°24'.
Warning: this ship's position is months out of date.

Length 19 m; draft 3.5 m.

Type: Tug. MMSI: 367021840.

Date/timePositionNaut miles runAvg speedWind from/ knotsBaromVisibWave heightAir tempDewpointWater temp
2017-Sep-20 19:19N 29°33' W 090°24'2 6.3
2017-Sep-20 18:59N 29°33' W 090°26'3 6.4
2017-Sep-20 18:30N 29°34' W 090°30'3 6.0
2017-Sep-20 18:00N 29°34' W 090°33'3 5.3
2017-Sep-20 17:30N 29°35' W 090°36'0 0.2
2017-Sep-20 17:00N 29°35' W 090°36'0 0.2
2017-Sep-20 16:30N 29°35' W 090°36'2 3.5
2017-Sep-20 16:00N 29°35' W 090°38'3 5.3
2017-Sep-20 15:30N 29°36' W 090°41'2 3.6
2017-Sep-20 15:00N 29°36' W 090°43'4 3.6
2017-Sep-20 14:00N 29°33' W 090°45'2 5.0
2017-Sep-20 13:30N 29°32' W 090°48'3 5.6
2017-Sep-20 12:59N 29°32' W 090°51'3 5.5
2017-Sep-20 12:30N 29°33' W 090°54'4 5.6
2017-Sep-20 11:48N 29°35' W 090°58'56 4.2
2017-Sep-19 22:34N 29°50' W 091°60'0 2.5
2017-Sep-19 22:24N 29°50' W 092°00'2 5.4
2017-Sep-19 22:00N 29°49' W 092°03'3 5.6
2017-Sep-19 21:30N 29°48' W 092°06'3 5.6
2017-Sep-19 21:00N 29°47' W 092°09'3 5.1
2017-Sep-19 20:30N 29°47' W 092°12'2 3.0
2017-Sep-19 20:00N 29°48' W 092°13'2 3.9
2017-Sep-19 19:30N 29°48' W 092°15'3 5.7
2017-Sep-19 19:00N 29°50' W 092°18'36 4.8
2017-Sep-19 11:23N 29°56' W 092°60'2 5.1
2017-Sep-19 11:00N 29°56' W 093°02'2 4.4
2017-Sep-19 10:30N 29°56' W 093°04'2 4.3
2017-Sep-19 10:00N 29°56' W 093°07'1 2.7
2017-Sep-19 09:30N 29°56' W 093°08'2 4.4
2017-Sep-19 09:00N 29°57' W 093°10'2 4.4
2017-Sep-19 08:30N 29°59' W 093°12'2 4.3
2017-Sep-19 08:00N 30°01' W 093°14'2 3.8
2017-Sep-19 07:30N 30°02' W 093°15'2 3.4
2017-Sep-19 07:00N 30°04' W 093°16'2 3.9
2017-Sep-19 06:30N 30°05' W 093°17'2 3.4
2017-Sep-19 06:00N 30°06' W 093°19'3 5.7
2017-Sep-19 05:30N 30°04' W 093°21'3 5.8
2017-Sep-19 05:00N 30°04' W 093°24'3 5.7
2017-Sep-19 04:30N 30°04' W 093°28'3 6.1
2017-Sep-19 04:00N 30°04' W 093°31'3 5.9
2017-Sep-19 03:29N 30°04' W 093°35'3 5.2
2017-Sep-19 03:00N 30°03' W 093°38'2 3.7
2017-Sep-19 02:29N 30°04' W 093°40'74 2.0
2017-Sep-17 14:05N 29°23' W 094°52'0 0.0
2017-Sep-17 02:55N 29°23' W 094°52'0 0.0
2017-Sep-17 02:30N 29°23' W 094°52'3 0.1
2017-Sep-16 07:17N 29°23' W 094°49'2 5.6
2017-Sep-16 07:00N 29°25' W 094°50'3 6.4
2017-Sep-16 06:29N 29°28' W 094°51'3 7.0
2017-Sep-16 06:01N 29°31' W 094°53'3 7.0
2017-Sep-16 05:31N 29°34' W 094°55'4 7.2
2017-Sep-16 05:01N 29°37' W 094°57'4 8.3
2017-Sep-16 04:31N 29°41' W 094°59'4 7.9
2017-Sep-16 04:00N 29°44' W 095°02'0 0.7
2017-Sep-16 03:28N 29°44' W 095°02'1 2.0
2017-Sep-16 03:00N 29°43' W 095°01'2 3.8
2017-Sep-16 02:31N 29°42' W 094°60'2 4.1
2017-Sep-16 02:01N 29°40' W 094°59'2 4.9
2017-Sep-16 01:30N 29°38' W 094°58'3 5.1
2017-Sep-16 01:01N 29°36' W 094°56'3 5.2
2017-Sep-16 00:31N 29°34' W 094°55'3 5.2
2017-Sep-16 00:00N 29°31' W 094°53'3 4.9
2017-Sep-15 23:28N 29°29' W 094°52'6 0.2
2017-Sep-14 16:15N 29°24' W 094°49'3 5.3
2017-Sep-14 15:46N 29°26' W 094°50'3 3.3
2017-Sep-14 14:45N 29°28' W 094°54'1 3.4
2017-Sep-14 14:28N 29°27' W 094°55'1 2.5
2017-Sep-14 14:01N 29°28' W 094°56'1 1.1
2017-Sep-14 13:31N 29°28' W 094°57'0 0.0
2017-Sep-14 13:00N 29°28' W 094°57'0 0.0
2017-Sep-14 12:30N 29°28' W 094°57'0 0.0
2017-Sep-14 12:00N 29°28' W 094°57'0 0.0
2017-Sep-14 11:31N 29°28' W 094°57'0 0.0
2017-Sep-14 11:01N 29°28' W 094°57'0 0.0
2017-Sep-14 10:31N 29°28' W 094°57'0 0.0
2017-Sep-14 10:01N 29°28' W 094°57'0 0.0
2017-Sep-14 09:31N 29°28' W 094°57'0 0.0
2017-Sep-14 09:01N 29°28' W 094°57'0 0.0
2017-Sep-14 08:31N 29°28' W 094°57'0 0.0
2017-Sep-14 08:01N 29°28' W 094°57'0 0.0
2017-Sep-14 07:30N 29°28' W 094°57'0 0.0
2017-Sep-14 07:01N 29°28' W 094°57'0 0.0
2017-Sep-14 06:31N 29°28' W 094°57'0 0.0
2017-Sep-14 06:01N 29°28' W 094°57'0 0.0
2017-Sep-14 05:31N 29°28' W 094°57'0 0.0
2017-Sep-14 05:01N 29°28' W 094°57'0 0.0
2017-Sep-14 04:31N 29°28' W 094°57'0 0.0
2017-Sep-14 04:01N 29°28' W 094°57'0 0.0
2017-Sep-14 03:31N 29°28' W 094°57'0 0.0
2017-Sep-14 03:01N 29°28' W 094°57'0 0.0
2017-Sep-14 02:31N 29°28' W 094°57'0 0.0
2017-Sep-14 02:00N 29°28' W 094°57'0 0.0
2017-Sep-14 01:31N 29°28' W 094°57'0 0.0
2017-Sep-14 01:00N 29°28' W 094°57'0 0.0
2017-Sep-14 00:31N 29°28' W 094°57'0 0.0
2017-Sep-14 00:01N 29°28' W 094°57'0 0.0
2017-Sep-13 23:31N 29°28' W 094°57'1 2.1
2017-Sep-13 23:01N 29°28' W 094°58'0 0.3
2017-Sep-13 22:31N 29°28' W 094°58'0 0.0
2017-Sep-13 22:00N 29°28' W 094°58'0 0.0
2017-Sep-13 21:31N 29°28' W 094°58'0 0.0
2017-Sep-13 21:01N 29°28' W 094°58'0 0.0
2017-Sep-13 20:31N 29°28' W 094°58'1 1.6
2017-Sep-13 20:00N 29°28' W 094°57'0 0.2
2017-Sep-13 19:31N 29°28' W 094°57'1 1.5
2017-Sep-13 19:01N 29°28' W 094°58'0 0.0
2017-Sep-13 18:31N 29°28' W 094°58'0 0.0
2017-Sep-13 18:01N 29°28' W 094°58'0 0.0
2017-Sep-13 17:31N 29°28' W 094°58'0 0.0
2017-Sep-13 17:01N 29°28' W 094°58'0 0.0
2017-Sep-13 16:31N 29°28' W 094°58'0 0.0
2017-Sep-13 16:01N 29°28' W 094°58'0 0.0
2017-Sep-13 15:30N 29°28' W 094°58'0 0.0
2017-Sep-13 15:00N 29°28' W 094°58'0 0.0
2017-Sep-13 14:31N 29°28' W 094°58'0 0.0
2017-Sep-13 14:01N 29°28' W 094°58'0 0.0
2017-Sep-13 13:31N 29°28' W 094°58'0 0.0
2017-Sep-13 13:01N 29°28' W 094°58'0 0.0
2017-Sep-13 12:29N 29°28' W 094°58'0 0.0
2017-Sep-13 12:00N 29°28' W 094°58'0 0.0
2017-Sep-13 11:30N 29°28' W 094°58'0 0.0
2017-Sep-13 11:00N 29°28' W 094°58'0 0.0
2017-Sep-13 10:30N 29°28' W 094°58'0 0.0
2017-Sep-13 10:00N 29°28' W 094°58'0 0.0
2017-Sep-13 09:30N 29°28' W 094°58'0 0.0
2017-Sep-13 09:00N 29°28' W 094°58'0 0.0
2017-Sep-13 08:30N 29°28' W 094°58'0 0.0
2017-Sep-13 08:00N 29°28' W 094°58'0 0.0
2017-Sep-13 07:30N 29°28' W 094°58'0 0.0
2017-Sep-13 07:00N 29°28' W 094°58'0 0.0
2017-Sep-13 06:30N 29°28' W 094°58'0 0.0
2017-Sep-13 06:00N 29°28' W 094°58'0 0.0
2017-Sep-13 05:30N 29°28' W 094°58'0 0.0
2017-Sep-13 05:00N 29°28' W 094°58'0 0.0
2017-Sep-13 04:30N 29°28' W 094°58'0 0.0
2017-Sep-13 04:00N 29°28' W 094°58'0 0.0
2017-Sep-13 03:30N 29°28' W 094°58'0 0.0
2017-Sep-13 03:00N 29°28' W 094°58'0 0.0
2017-Sep-13 02:30N 29°28' W 094°58'0 0.0
2017-Sep-13 02:00N 29°28' W 094°58'0 0.0
2017-Sep-13 01:30N 29°28' W 094°58'0 0.0
2017-Sep-13 01:00N 29°28' W 094°58'0 0.0
2017-Sep-13 00:30N 29°28' W 094°58'0 0.0
2017-Sep-13 00:00N 29°28' W 094°58'0 0.0
2017-Sep-12 23:30N 29°28' W 094°58'0 0.0
2017-Sep-12 23:00N 29°28' W 094°58'0 0.0
2017-Sep-12 22:30N 29°28' W 094°58'0 0.0
2017-Sep-12 22:00N 29°28' W 094°58'0 0.0
2017-Sep-12 21:30N 29°28' W 094°58'0 0.0
2017-Sep-12 21:00N 29°28' W 094°58'0 0.0
2017-Sep-12 20:30N 29°28' W 094°58'0 0.0
2017-Sep-12 20:00N 29°28' W 094°58'0 0.0
2017-Sep-12 19:30N 29°28' W 094°58'0 0.0
2017-Sep-12 19:00N 29°28' W 094°58'1 2.3
2017-Sep-12 18:30N 29°28' W 094°57'1 2.3
2017-Sep-12 18:00N 29°28' W 094°58'0 0.0
2017-Sep-12 17:30N 29°28' W 094°58'0 0.0
2017-Sep-12 17:00N 29°28' W 094°58'0 0.0
2017-Sep-12 16:30N 29°28' W 094°58'0 0.0
2017-Sep-12 16:00N 29°28' W 094°58'0 0.0
2017-Sep-12 15:30N 29°28' W 094°58'0 0.0
2017-Sep-12 15:00N 29°28' W 094°58'0 0.0
2017-Sep-12 14:30N 29°28' W 094°58'0 0.0
2017-Sep-12 14:00N 29°28' W 094°58'0 0.0
2017-Sep-12 13:30N 29°28' W 094°58'0 0.0
2017-Sep-12 13:00N 29°28' W 094°58'0 0.0
2017-Sep-12 12:30N 29°28' W 094°58'0 0.0
2017-Sep-12 12:00N 29°28' W 094°58'0 0.0
2017-Sep-12 11:30N 29°28' W 094°58'0 0.0
2017-Sep-12 11:00N 29°28' W 094°58'0 0.0
2017-Sep-12 10:30N 29°28' W 094°58'0 0.0
2017-Sep-12 10:00N 29°28' W 094°58'0 0.0
2017-Sep-12 09:30N 29°28' W 094°58'0 0.0
2017-Sep-12 09:00N 29°28' W 094°58'0 0.0
2017-Sep-12 08:30N 29°28' W 094°58'0 0.0
2017-Sep-12 08:00N 29°28' W 094°58'0 0.0
2017-Sep-12 07:30N 29°28' W 094°58'0 0.0
2017-Sep-12 07:00N 29°28' W 094°58'0 0.0
2017-Sep-12 06:30N 29°28' W 094°58'0 0.0
2017-Sep-12 06:00N 29°28' W 094°58'0 0.0
2017-Sep-12 05:30N 29°28' W 094°58'0 0.0
2017-Sep-12 05:00N 29°28' W 094°58'0 0.0
2017-Sep-12 04:30N 29°28' W 094°58'0 0.0
2017-Sep-12 04:00N 29°28' W 094°58'0 0.0
2017-Sep-12 03:30N 29°28' W 094°58'0 0.0
2017-Sep-12 03:00N 29°28' W 094°58'0 0.0
2017-Sep-12 02:30N 29°28' W 094°58'0 0.0
2017-Sep-12 02:00N 29°28' W 094°58'0 0.0
2017-Sep-12 01:30N 29°28' W 094°58'0 0.0
2017-Sep-12 01:00N 29°28' W 094°58'0 0.0
2017-Sep-12 00:30N 29°28' W 094°58'0 0.0
2017-Sep-12 00:00N 29°28' W 094°58'0 0.0
2017-Sep-11 23:30N 29°28' W 094°58'0 0.0
2017-Sep-11 23:00N 29°28' W 094°58'0 0.0
2017-Sep-11 22:30N 29°28' W 094°58'0 0.0
2017-Sep-11 22:00N 29°28' W 094°58'0 0.0
2017-Sep-11 21:30N 29°28' W 094°58'0 0.0
2017-Sep-11 21:00N 29°28' W 094°58'0 0.0
2017-Sep-11 20:30N 29°28' W 094°58'1 2.4
2017-Sep-11 20:00N 29°28' W 094°57'1 2.4
2017-Sep-11 19:30N 29°28' W 094°58'0 0.0
2017-Sep-11 19:00N 29°28' W 094°58'0 0.0
2017-Sep-11 18:30N 29°28' W 094°58'0 0.0
2017-Sep-11 18:00N 29°28' W 094°58'0 0.0
2017-Sep-11 17:30N 29°28' W 094°58'0 0.0
2017-Sep-11 17:00N 29°28' W 094°58'0 0.0
2017-Sep-11 16:30N 29°28' W 094°58'0 0.0
2017-Sep-11 16:00N 29°28' W 094°58'0 0.0
2017-Sep-11 15:30N 29°28' W 094°58'0 0.8
2017-Sep-11 15:00N 29°28' W 094°58'1 1.6
2017-Sep-11 14:30N 29°28' W 094°57'0 0.0
2017-Sep-11 14:00N 29°28' W 094°57'0 0.0
2017-Sep-11 13:30N 29°28' W 094°57'0 0.0
2017-Sep-11 13:00N 29°28' W 094°57'0 0.0
2017-Sep-11 12:30N 29°28' W 094°57'0 0.0
2017-Sep-11 12:00N 29°28' W 094°57'0 0.0
2017-Sep-11 11:30N 29°28' W 094°57'0 0.0
2017-Sep-11 11:00N 29°28' W 094°57'0 0.0
2017-Sep-11 10:30N 29°28' W 094°57'0 0.0
2017-Sep-11 10:00N 29°28' W 094°57'0 0.0
2017-Sep-11 09:30N 29°28' W 094°57'0 0.0
2017-Sep-11 09:00N 29°28' W 094°57'0 0.0
2017-Sep-11 08:30N 29°28' W 094°57'0 0.0
2017-Sep-11 08:00N 29°28' W 094°57'0 0.0
2017-Sep-11 07:30N 29°28' W 094°57'0 0.0
2017-Sep-11 07:00N 29°28' W 094°57'0 0.0
2017-Sep-11 06:30N 29°28' W 094°57'0 0.0
2017-Sep-11 06:00N 29°28' W 094°57'0 0.0
2017-Sep-11 05:30N 29°28' W 094°57'0 0.0
2017-Sep-11 05:00N 29°28' W 094°57'0 0.0
2017-Sep-11 04:30N 29°28' W 094°57'0 0.0
2017-Sep-11 04:00N 29°28' W 094°57'0 0.0
2017-Sep-11 03:30N 29°28' W 094°57'0 0.0
2017-Sep-11 03:00N 29°28' W 094°57'0 0.0
2017-Sep-11 02:30N 29°28' W 094°57'0 0.0
2017-Sep-11 02:00N 29°28' W 094°57'0 0.0
2017-Sep-11 01:30N 29°28' W 094°57'0 0.9
2017-Sep-11 00:59N 29°28' W 094°56'0 0.4
2017-Sep-11 00:30N 29°28' W 094°56'2 3.7
2017-Sep-10 23:59N 29°28' W 094°54'1 2.6
2017-Sep-10 23:29N 29°29' W 094°52'2 4.1
2017-Sep-10 23:00N 29°30' W 094°53'1 1.4
2017-Sep-10 22:30N 29°31' W 094°54'2 3.2
2017-Sep-10 21:58N 29°29' W 094°53'  
Track history (hours):
 
Tides and Currents Weather Stations Pressure Air Temp Water Temp Dewpoint Dewpoint Depression Visibility Wind Speed Wind Dir Waves Ship Positions

Troy Jacob

Owner: ABC Marine Towing, Harvey, LA. More information available from US FCC via Universal Licensing System and Coast Guard Vessel Documentation Center.

Last reported at 2017-Sep-20 19:19 UTC. Time now 2017-Nov-25 02:03 UTC.
Position N 29°33' W 090°24'.
Warning: this ship's position is months out of date.

Length 19 m; draft 3.5 m.

Type: Tug. MMSI: 367021840.

Date/timePositionNaut miles runAvg speedWind from/ knotsBaromVisibWave heightAir tempDewpointWater temp
2017-Sep-20 19:19N 29°33' W 090°24'2 6.3
2017-Sep-20 18:59N 29°33' W 090°26'3 6.4
2017-Sep-20 18:30N 29°34' W 090°30'3 6.0
2017-Sep-20 18:00N 29°34' W 090°33'3 5.3
2017-Sep-20 17:30N 29°35' W 090°36'0 0.2
2017-Sep-20 17:00N 29°35' W 090°36'0 0.2
2017-Sep-20 16:30N 29°35' W 090°36'2 3.5
2017-Sep-20 16:00N 29°35' W 090°38'3 5.3
2017-Sep-20 15:30N 29°36' W 090°41'2 3.6
2017-Sep-20 15:00N 29°36' W 090°43'4 3.6
2017-Sep-20 14:00N 29°33' W 090°45'2 5.0
2017-Sep-20 13:30N 29°32' W 090°48'3 5.6
2017-Sep-20 12:59N 29°32' W 090°51'3 5.5
2017-Sep-20 12:30N 29°33' W 090°54'4 5.6
2017-Sep-20 11:48N 29°35' W 090°58'56 4.2
2017-Sep-19 22:34N 29°50' W 091°60'0 2.5
2017-Sep-19 22:24N 29°50' W 092°00'2 5.4
2017-Sep-19 22:00N 29°49' W 092°03'3 5.6
2017-Sep-19 21:30N 29°48' W 092°06'3 5.6
2017-Sep-19 21:00N 29°47' W 092°09'3 5.1
2017-Sep-19 20:30N 29°47' W 092°12'2 3.0
2017-Sep-19 20:00N 29°48' W 092°13'2 3.9
2017-Sep-19 19:30N 29°48' W 092°15'3 5.7
2017-Sep-19 19:00N 29°50' W 092°18'36 4.8
2017-Sep-19 11:23N 29°56' W 092°60'2 5.1
2017-Sep-19 11:00N 29°56' W 093°02'2 4.4
2017-Sep-19 10:30N 29°56' W 093°04'2 4.3
2017-Sep-19 10:00N 29°56' W 093°07'1 2.7
2017-Sep-19 09:30N 29°56' W 093°08'2 4.4
2017-Sep-19 09:00N 29°57' W 093°10'2 4.4
2017-Sep-19 08:30N 29°59' W 093°12'2 4.3
2017-Sep-19 08:00N 30°01' W 093°14'2 3.8
2017-Sep-19 07:30N 30°02' W 093°15'2 3.4
2017-Sep-19 07:00N 30°04' W 093°16'2 3.9
2017-Sep-19 06:30N 30°05' W 093°17'2 3.4
2017-Sep-19 06:00N 30°06' W 093°19'3 5.7
2017-Sep-19 05:30N 30°04' W 093°21'3 5.8
2017-Sep-19 05:00N 30°04' W 093°24'3 5.7
2017-Sep-19 04:30N 30°04' W 093°28'3 6.1
2017-Sep-19 04:00N 30°04' W 093°31'3 5.9
2017-Sep-19 03:29N 30°04' W 093°35'3 5.2
2017-Sep-19 03:00N 30°03' W 093°38'2 3.7
2017-Sep-19 02:29N 30°04' W 093°40'74 2.0
2017-Sep-17 14:05N 29°23' W 094°52'0 0.0
2017-Sep-17 02:55N 29°23' W 094°52'0 0.0
2017-Sep-17 02:30N 29°23' W 094°52'3 0.1
2017-Sep-16 07:17N 29°23' W 094°49'2 5.6
2017-Sep-16 07:00N 29°25' W 094°50'3 6.4
2017-Sep-16 06:29N 29°28' W 094°51'3 7.0
2017-Sep-16 06:01N 29°31' W 094°53'3 7.0
2017-Sep-16 05:31N 29°34' W 094°55'4 7.2
2017-Sep-16 05:01N 29°37' W 094°57'4 8.3
2017-Sep-16 04:31N 29°41' W 094°59'4 7.9
2017-Sep-16 04:00N 29°44' W 095°02'0 0.7
2017-Sep-16 03:28N 29°44' W 095°02'1 2.0
2017-Sep-16 03:00N 29°43' W 095°01'2 3.8
2017-Sep-16 02:31N 29°42' W 094°60'2 4.1
2017-Sep-16 02:01N 29°40' W 094°59'2 4.9
2017-Sep-16 01:30N 29°38' W 094°58'3 5.1
2017-Sep-16 01:01N 29°36' W 094°56'3 5.2
2017-Sep-16 00:31N 29°34' W 094°55'3 5.2
2017-Sep-16 00:00N 29°31' W 094°53'3 4.9
2017-Sep-15 23:28N 29°29' W 094°52'6 0.2
2017-Sep-14 16:15N 29°24' W 094°49'3 5.3
2017-Sep-14 15:46N 29°26' W 094°50'3 3.3
2017-Sep-14 14:45N 29°28' W 094°54'1 3.4
2017-Sep-14 14:28N 29°27' W 094°55'1 2.5
2017-Sep-14 14:01N 29°28' W 094°56'1 1.1
2017-Sep-14 13:31N 29°28' W 094°57'0 0.0
2017-Sep-14 13:00N 29°28' W 094°57'0 0.0
2017-Sep-14 12:30N 29°28' W 094°57'0 0.0
2017-Sep-14 12:00N 29°28' W 094°57'0 0.0
2017-Sep-14 11:31N 29°28' W 094°57'0 0.0
2017-Sep-14 11:01N 29°28' W 094°57'0 0.0
2017-Sep-14 10:31N 29°28' W 094°57'0 0.0
2017-Sep-14 10:01N 29°28' W 094°57'0 0.0
2017-Sep-14 09:31N 29°28' W 094°57'0 0.0
2017-Sep-14 09:01N 29°28' W 094°57'0 0.0
2017-Sep-14 08:31N 29°28' W 094°57'0 0.0
2017-Sep-14 08:01N 29°28' W 094°57'0 0.0
2017-Sep-14 07:30N 29°28' W 094°57'0 0.0
2017-Sep-14 07:01N 29°28' W 094°57'0 0.0
2017-Sep-14 06:31N 29°28' W 094°57'0 0.0
2017-Sep-14 06:01N 29°28' W 094°57'0 0.0
2017-Sep-14 05:31N 29°28' W 094°57'0 0.0
2017-Sep-14 05:01N 29°28' W 094°57'0 0.0
2017-Sep-14 04:31N 29°28' W 094°57'0 0.0
2017-Sep-14 04:01N 29°28' W 094°57'0 0.0
2017-Sep-14 03:31N 29°28' W 094°57'0 0.0
2017-Sep-14 03:01N 29°28' W 094°57'0 0.0
2017-Sep-14 02:31N 29°28' W 094°57'0 0.0
2017-Sep-14 02:00N 29°28' W 094°57'0 0.0
2017-Sep-14 01:31N 29°28' W 094°57'0 0.0
2017-Sep-14 01:00N 29°28' W 094°57'0 0.0
2017-Sep-14 00:31N 29°28' W 094°57'0 0.0
2017-Sep-14 00:01N 29°28' W 094°57'0 0.0
2017-Sep-13 23:31N 29°28' W 094°57'1 2.1
2017-Sep-13 23:01N 29°28' W 094°58'0 0.3
2017-Sep-13 22:31N 29°28' W 094°58'0 0.0
2017-Sep-13 22:00N 29°28' W 094°58'0 0.0
2017-Sep-13 21:31N 29°28' W 094°58'0 0.0
2017-Sep-13 21:01N 29°28' W 094°58'0 0.0
2017-Sep-13 20:31N 29°28' W 094°58'1 1.6
2017-Sep-13 20:00N 29°28' W 094°57'0 0.2
2017-Sep-13 19:31N 29°28' W 094°57'1 1.5
2017-Sep-13 19:01N 29°28' W 094°58'0 0.0
2017-Sep-13 18:31N 29°28' W 094°58'0 0.0
2017-Sep-13 18:01N 29°28' W 094°58'0 0.0
2017-Sep-13 17:31N 29°28' W 094°58'0 0.0
2017-Sep-13 17:01N 29°28' W 094°58'0 0.0
2017-Sep-13 16:31N 29°28' W 094°58'0 0.0
2017-Sep-13 16:01N 29°28' W 094°58'0 0.0
2017-Sep-13 15:30N 29°28' W 094°58'0 0.0
2017-Sep-13 15:00N 29°28' W 094°58'0 0.0
2017-Sep-13 14:31N 29°28' W 094°58'0 0.0
2017-Sep-13 14:01N 29°28' W 094°58'0 0.0
2017-Sep-13 13:31N 29°28' W 094°58'0 0.0
2017-Sep-13 13:01N 29°28' W 094°58'0 0.0
2017-Sep-13 12:29N 29°28' W 094°58'0 0.0
2017-Sep-13 12:00N 29°28' W 094°58'0 0.0
2017-Sep-13 11:30N 29°28' W 094°58'0 0.0
2017-Sep-13 11:00N 29°28' W 094°58'0 0.0
2017-Sep-13 10:30N 29°28' W 094°58'0 0.0
2017-Sep-13 10:00N 29°28' W 094°58'0 0.0
2017-Sep-13 09:30N 29°28' W 094°58'0 0.0
2017-Sep-13 09:00N 29°28' W 094°58'0 0.0
2017-Sep-13 08:30N 29°28' W 094°58'0 0.0
2017-Sep-13 08:00N 29°28' W 094°58'0 0.0
2017-Sep-13 07:30N 29°28' W 094°58'0 0.0
2017-Sep-13 07:00N 29°28' W 094°58'0 0.0
2017-Sep-13 06:30N 29°28' W 094°58'0 0.0
2017-Sep-13 06:00N 29°28' W 094°58'0 0.0
2017-Sep-13 05:30N 29°28' W 094°58'0 0.0
2017-Sep-13 05:00N 29°28' W 094°58'0 0.0
2017-Sep-13 04:30N 29°28' W 094°58'0 0.0
2017-Sep-13 04:00N 29°28' W 094°58'0 0.0
2017-Sep-13 03:30N 29°28' W 094°58'0 0.0
2017-Sep-13 03:00N 29°28' W 094°58'0 0.0
2017-Sep-13 02:30N 29°28' W 094°58'0 0.0
2017-Sep-13 02:00N 29°28' W 094°58'0 0.0
2017-Sep-13 01:30N 29°28' W 094°58'0 0.0
2017-Sep-13 01:00N 29°28' W 094°58'0 0.0
2017-Sep-13 00:30N 29°28' W 094°58'0 0.0
2017-Sep-13 00:00N 29°28' W 094°58'0 0.0
2017-Sep-12 23:30N 29°28' W 094°58'0 0.0
2017-Sep-12 23:00N 29°28' W 094°58'0 0.0
2017-Sep-12 22:30N 29°28' W 094°58'0 0.0
2017-Sep-12 22:00N 29°28' W 094°58'0 0.0
2017-Sep-12 21:30N 29°28' W 094°58'0 0.0
2017-Sep-12 21:00N 29°28' W 094°58'0 0.0
2017-Sep-12 20:30N 29°28' W 094°58'0 0.0
2017-Sep-12 20:00N 29°28' W 094°58'0 0.0
2017-Sep-12 19:30N 29°28' W 094°58'0 0.0
2017-Sep-12 19:00N 29°28' W 094°58'1 2.3
2017-Sep-12 18:30N 29°28' W 094°57'1 2.3
2017-Sep-12 18:00N 29°28' W 094°58'0 0.0
2017-Sep-12 17:30N 29°28' W 094°58'0 0.0
2017-Sep-12 17:00N 29°28' W 094°58'0 0.0
2017-Sep-12 16:30N 29°28' W 094°58'0 0.0
2017-Sep-12 16:00N 29°28' W 094°58'0 0.0
2017-Sep-12 15:30N 29°28' W 094°58'0 0.0
2017-Sep-12 15:00N 29°28' W 094°58'0 0.0
2017-Sep-12 14:30N 29°28' W 094°58'0 0.0
2017-Sep-12 14:00N 29°28' W 094°58'0 0.0
2017-Sep-12 13:30N 29°28' W 094°58'0 0.0
2017-Sep-12 13:00N 29°28' W 094°58'0 0.0
2017-Sep-12 12:30N 29°28' W 094°58'0 0.0
2017-Sep-12 12:00N 29°28' W 094°58'0 0.0
2017-Sep-12 11:30N 29°28' W 094°58'0 0.0
2017-Sep-12 11:00N 29°28' W 094°58'0 0.0
2017-Sep-12 10:30N 29°28' W 094°58'0 0.0
2017-Sep-12 10:00N 29°28' W 094°58'0 0.0
2017-Sep-12 09:30N 29°28' W 094°58'0 0.0
2017-Sep-12 09:00N 29°28' W 094°58'0 0.0
2017-Sep-12 08:30N 29°28' W 094°58'0 0.0
2017-Sep-12 08:00N 29°28' W 094°58'0 0.0
2017-Sep-12 07:30N 29°28' W 094°58'0 0.0
2017-Sep-12 07:00N 29°28' W 094°58'0 0.0
2017-Sep-12 06:30N 29°28' W 094°58'0 0.0
2017-Sep-12 06:00N 29°28' W 094°58'0 0.0
2017-Sep-12 05:30N 29°28' W 094°58'0 0.0
2017-Sep-12 05:00N 29°28' W 094°58'0 0.0
2017-Sep-12 04:30N 29°28' W 094°58'0 0.0
2017-Sep-12 04:00N 29°28' W 094°58'0 0.0
2017-Sep-12 03:30N 29°28' W 094°58'0 0.0
2017-Sep-12 03:00N 29°28' W 094°58'0 0.0
2017-Sep-12 02:30N 29°28' W 094°58'0 0.0
2017-Sep-12 02:00N 29°28' W 094°58'0 0.0
2017-Sep-12 01:30N 29°28' W 094°58'0 0.0
2017-Sep-12 01:00N 29°28' W 094°58'0 0.0
2017-Sep-12 00:30N 29°28' W 094°58'0 0.0
2017-Sep-12 00:00N 29°28' W 094°58'0 0.0
2017-Sep-11 23:30N 29°28' W 094°58'0 0.0
2017-Sep-11 23:00N 29°28' W 094°58'0 0.0
2017-Sep-11 22:30N 29°28' W 094°58'0 0.0
2017-Sep-11 22:00N 29°28' W 094°58'0 0.0
2017-Sep-11 21:30N 29°28' W 094°58'0 0.0
2017-Sep-11 21:00N 29°28' W 094°58'0 0.0
2017-Sep-11 20:30N 29°28' W 094°58'1 2.4
2017-Sep-11 20:00N 29°28' W 094°57'1 2.4
2017-Sep-11 19:30N 29°28' W 094°58'0 0.0
2017-Sep-11 19:00N 29°28' W 094°58'0 0.0
2017-Sep-11 18:30N 29°28' W 094°58'0 0.0
2017-Sep-11 18:00N 29°28' W 094°58'0 0.0
2017-Sep-11 17:30N 29°28' W 094°58'0 0.0
2017-Sep-11 17:00N 29°28' W 094°58'0 0.0
2017-Sep-11 16:30N 29°28' W 094°58'0 0.0
2017-Sep-11 16:00N 29°28' W 094°58'0 0.0
2017-Sep-11 15:30N 29°28' W 094°58'0 0.8
2017-Sep-11 15:00N 29°28' W 094°58'1 1.6
2017-Sep-11 14:30N 29°28' W 094°57'0 0.0
2017-Sep-11 14:00N 29°28' W 094°57'0 0.0
2017-Sep-11 13:30N 29°28' W 094°57'0 0.0
2017-Sep-11 13:00N 29°28' W 094°57'0 0.0
2017-Sep-11 12:30N 29°28' W 094°57'0 0.0
2017-Sep-11 12:00N 29°28' W 094°57'0 0.0
2017-Sep-11 11:30N 29°28' W 094°57'0 0.0
2017-Sep-11 11:00N 29°28' W 094°57'0 0.0
2017-Sep-11 10:30N 29°28' W 094°57'0 0.0
2017-Sep-11 10:00N 29°28' W 094°57'0 0.0
2017-Sep-11 09:30N 29°28' W 094°57'0 0.0
2017-Sep-11 09:00N 29°28' W 094°57'0 0.0
2017-Sep-11 08:30N 29°28' W 094°57'0 0.0
2017-Sep-11 08:00N 29°28' W 094°57'0 0.0
2017-Sep-11 07:30N 29°28' W 094°57'0 0.0
2017-Sep-11 07:00N 29°28' W 094°57'0 0.0
2017-Sep-11 06:30N 29°28' W 094°57'0 0.0
2017-Sep-11 06:00N 29°28' W 094°57'0 0.0
2017-Sep-11 05:30N 29°28' W 094°57'0 0.0
2017-Sep-11 05:00N 29°28' W 094°57'0 0.0
2017-Sep-11 04:30N 29°28' W 094°57'0 0.0
2017-Sep-11 04:00N 29°28' W 094°57'0 0.0
2017-Sep-11 03:30N 29°28' W 094°57'0 0.0
2017-Sep-11 03:00N 29°28' W 094°57'0 0.0
2017-Sep-11 02:30N 29°28' W 094°57'0 0.0
2017-Sep-11 02:00N 29°28' W 094°57'0 0.0
2017-Sep-11 01:30N 29°28' W 094°57'0 0.9
2017-Sep-11 00:59N 29°28' W 094°56'0 0.4
2017-Sep-11 00:30N 29°28' W 094°56'2 3.7
2017-Sep-10 23:59N 29°28' W 094°54'1 2.6
2017-Sep-10 23:29N 29°29' W 094°52'2 4.1
2017-Sep-10 23:00N 29°30' W 094°53'1 1.4
2017-Sep-10 22:30N 29°31' W 094°54'2 3.2
2017-Sep-10 21:58N 29°29' W 094°53'  

Dump ship's entire track history